, LA

(GMT )
Salt Point

Weather History for KP92 - January, 2013

Change the Weather History Date:

Tuesday, January 8, 2013

  Actual Average Record
Temperature  
Mean Temperature 66 °F -  
Max Temperature 73 °F 58 °F 73 °F (2008)
Min Temperature 60 °F 43 °F 25 °F (2015)
Cooling Degree Days 2    
Growing Degree Days 16 (Base 50)    
Moisture  
Dew Point 56 °F    
Average Humidity 71    
Maximum Humidity 84    
Minimum Humidity 58    
Precipitation  
Precipitation 3.85 in - - ()
Sea Level Pressure  
Sea Level Pressure 30.08 in    
Wind  
Wind Speed 5 mph (ENE)    
Max Wind Speed 8 mph    
Max Gust Speed -    
Averages and records for this station are not official NWS values.
T = Trace of Precipitation, MM = Missing Value Source: NWS Daily Summary

Daily Weather History Graph

Daily Weather History Graph

Search for Another Location

Airport or City:

Trip Planner

Search our weather history database for the weather conditions in past years. The results will help you decide how hot, cold, wet, or windy it might be!

Date:

Astronomy

Jan. 08, 2013 Rise Set
Actual Time 7:02 AM CST 5:24 PM CST
Civil Twilight 6:36 AM CST 5:49 PM CST
Nautical Twilight 6:06 AM CST 6:19 PM CST
Astronomical Twilight 5:37 AM CST 6:48 PM CST
Moon 3:36 AM CST (1/8) 2:25 PM CST (1/8)
Length of Visible Light 11h 13m
Length of Day
10h 21m
Waning Crescent, 13% of the Moon is Illuminated
Jan 8
Waning Crescent
Jan 11
New
Jan 18
First Quarter
Jan 26
Full
Feb 3
Last Quarter

Hourly Weather History & Observations

Time (CST) Temp. Dew Point Humidity Pressure Visibility Wind Dir Wind Speed Gust Speed Precip Events Conditions
12:53 AM 63.0 °F 48.9 °F 60% 30.09 in - Variable 5.8 mph - N/A   Unknown
1:53 AM 62.1 °F 50.0 °F 65% 30.10 in - East 4.6 mph - N/A   Unknown
2:53 AM 64.9 °F 50.0 °F 58% 30.08 in - Variable 4.6 mph - N/A   Unknown
3:53 AM 62.1 °F 51.1 °F 67% 30.09 in - Variable 3.5 mph - N/A   Unknown
4:53 AM 60.1 °F 51.1 °F 72% 30.07 in - East 4.6 mph - N/A   Unknown
5:53 AM 62.1 °F 51.1 °F 67% 30.08 in - Variable 3.5 mph - N/A   Unknown
6:53 AM 63.0 °F 52.0 °F 67% 30.09 in - Variable 4.6 mph - N/A   Unknown
7:53 AM 66.0 °F 52.0 °F 60% 30.12 in - East 4.6 mph - N/A   Unknown
8:53 AM 69.1 °F 55.0 °F 61% 30.12 in - ESE 5.8 mph - N/A   Unknown
9:53 AM 66.9 °F 57.0 °F 70% 30.17 in - East 4.6 mph - N/A   Unknown
10:53 AM 66.9 °F 59.0 °F 76% 30.13 in - East 5.8 mph - 0.05 in   Unknown
11:53 AM 69.1 °F 60.1 °F 73% 30.09 in - Variable 4.6 mph - 0.02 in   Unknown
12:53 PM 66.9 °F 61.0 °F 81% 30.07 in - Variable 3.5 mph - 0.11 in   Unknown
1:53 PM 66.0 °F 60.1 °F 81% 30.04 in - Variable 4.6 mph - 0.25 in   Unknown
2:53 PM 66.9 °F 59.0 °F 76% 30.03 in - Variable 4.6 mph - 0.04 in   Unknown
3:53 PM 64.0 °F 57.9 °F 80% 30.02 in - Variable 4.6 mph - 0.19 in   Unknown
4:53 PM 64.0 °F 59.0 °F 84% 30.04 in - Variable 5.8 mph - 0.25 in   Unknown
5:53 PM 64.9 °F 59.0 °F 81% 30.04 in - Variable 4.6 mph - 0.19 in   Unknown
6:53 PM 64.9 °F 59.0 °F 81% 30.04 in - Variable 3.5 mph - 0.20 in   Unknown
7:53 PM 66.9 °F 60.1 °F 79% 30.06 in - Variable 3.5 mph - 0.42 in   Unknown
8:53 PM 73.0 °F 60.1 °F 64% 30.08 in - North 5.8 mph - 0.67 in   Unknown
9:53 PM 69.1 °F 60.1 °F 73% 30.10 in - Variable 3.5 mph - 0.94 in   Unknown
10:53 PM 72.0 °F 60.1 °F 66% 30.11 in - North 8.1 mph - 0.38 in   Unknown
11:53 PM 69.1 °F 60.1 °F 73% 30.11 in - Variable 3.5 mph - 0.14 in   Unknown